Tracking 29892 objects as of 21-Nov-2024
HD Live streaming from Space Station
objects crossing your sky now

STARLINK-3859

Track STARLINK-3859 now!
10-day predictions
STARLINK-3859 is classified as:


NORAD ID: 52470
Int'l Code: 2022-049V
Perigee: 545.9 km
Apogee: 547.9 km
Inclination: 53.2 °
Period: 95.4 minutes
Semi major axis: 6917 km
RCS: Unknown
Launch date: May 6, 2022
Source: United States (US)
Launch site: AIR FORCE EASTERN TEST RANGE (AFETR)
Your satellite tracking list
Your tracking list is empty




NASA's NSSDC Master Catalog

Two Line Element Set (TLE):
1 52470U 22049V   24326.15889840  .00001009  00000-0  81472-4 0  9991
2 52470  53.2162  24.8822 0001465  91.0471 269.0689 15.08833501140923
Source of the keplerian elements: AFSPC